Dewpoint
50 50 49 49 49 48 48 47 48 49 50 49 49 48 50 50 50 50 52 52 52 52 51 51 51 51 46 34 33 31 57 56 53 44 40 38 25 24 25 25 25 22 20 20 19 20 20
49 49 49 49 49 50 48 47 48 50 50 49 49 50 49 50 50 50 51 52 52 52 52 51 51 50 43 31 26 24 26 31 41 25 34 33 30 27 27 26 25 24 22 21 19 18 18
47 48 49 50 49 49 50 50 48 49 49 49 49 49 49 49 50 50 50 51 51 51 51 51 51 47 41 35 28 28 29 26 28 29 19 28 34 31 29 27 27 26 23 21 20 19 19
47 46 46 48 50 50 50 50 49 47 47 47 47 48 50 50 51 51 51 51 50 51 51 51 51 47 40 37 34 30 29 28 31 31 26 20 19 23 31 32 29 26 24 19 23 21 20
48 47 45 46 48 49 50 50 49 48 47 48 48 48 49 50 50 51 51 50 50 51 51 51 48 46 38 40 35 32 31 28 28 30 28 24 16 17 24 30 27 28 23 21 20 20 19
46 46 46 45 45 47 48 48 50 49 49 48 47 47 49 50 50 50 50 50 48 49 48 44 44 42 41 31 27 28 28 24 28 32 28 23 13 15 23 27 25 25 24 21 20 21 20
46 46 46 45 45 45 47 46 48 49 48 47 46 46 47 49 49 49 48 42 35 39 39 39 39 37 32 33 26 20 29 35 33 28 24 21 12 13 20 25 28 27 27 24 22 22 21
44 44 46 46 44 44 46 47 48 48 47 46 47 46 46 47 49 49 45 41 35 35 35 36 34 31 32 26 23 20 20 26 29 25 24 23 17 16 18 21 23 26 29 30 26 25 24
44 45 45 44 44 44 45 46 46 47 46 47 46 45 46 47 48 45 43 42 40 39 35 32 31 31 29 28 25 23 20 20 27 30 30 29 28 31 26 22 23 27 23 24 24 24 25
41 42 42 43 44 44 45 45 45 44 46 46 46 46 47 48 43 41 39 40 43 41 30 27 25 23 24 27 26 25 25 18 28 28 33 36 38 37 33 29 26 25 27 25 30 33 31
42 43 43 43 44 44 44 44 45 45 45 46 46 45 46 45 41 38 38 42 41 40 21 28 22 26 28 25 26 22 25 21 24 32 34 32 35 37 37 32 33 28 32 33 36 34 32
42 43 43 43 43 43 43 44 44 45 45 45 46 45 46 40 41 38 41 44 43 32 21 13 24 25 25 26 26 23 21 23 29 28 33 32 32 34 37 37 35 36 39 38 35 35 32
40 40 41 42 41 42 42 43 44 44 44 45 46 45 43 39 36 39 39 43 30 25 19 12 21 20 20 18 21 22 19 22 25 26 26 26 27 31 32 32 35 40 37 33 31 31 27
40 40 40 40 41 42 42 42 42 44 43 44 45 45 42 38 38 39 41 37 25 22 19 17 18 19 17 16 18 21 19 19 24 26 21 22 26 26 30 31 33 34 37 32 25 27 29
41 41 41 41 40 41 41 42 42 43 43 44 44 39 39 39 40 42 39 27 24 19 19 18 16 15 14 14 21 24 21 23 21 22 19 23 26 30 32 35 30 35 34 33 33 32 33
39 40 40 40 41 41 41 41 41 43 43 42 40 39 37 38 41 42 35 27 22 23 21 19 16 16 13 19 20 30 29 31 27 24 23 22 22 26 28 32 34 35 39 32 35 26 27
39 40 41 41 41 41 41 41 40 41 43 43 40 35 34 37 44 37 29 30 25 25 22 19 19 19 21 20 20 21 34 30 26 25 26 23 24 25 26 31 30 32 36 37 35 33 32
41 41 41 42 42 41 41 41 42 42 42 40 39 27 38 40 33 35 32 30 30 22 23 23 22 21 21 23 23 22 30 28 26 27 24 28 30 24 22 25 32 36 35 37 34 30 34
41 41 42 42 42 43 42 41 42 41 42 39 35 31 38 43 26 31 32 32 29 27 24 22 21 22 21 21 22 23 30 32 30 27 25 25 30 27 24 25 27 28 35 36 36 37 35
41 41 42 43 43 43 43 43 41 41 41 40 34 25 29 37 35 32 28 27 26 26 25 22 21 22 21 20 22 24 25 30 30 27 34 32 29 28 28 33 35 34 33 35 38 34 31
41 42 43 43 44 44 43 43 42 41 42 40 34 31 30 20 31 33 32 35 31 24 23 23 21 21 21 20 20 21 24 24 29 33 28 29 27 28 26 26 35 35 36 36 36 35 35
41 43 43 43 43 44 43 43 43 42 42 37 32 30 28 27 30 30 30 28 25 25 26 27 25 23 22 20 20 21 28 29 30 30 28 27 25 26 24 23 24 32 32 33 34 38 37
41 42 43 43 44 44 44 43 44 43 42 36 37 35 33 28 26 27 28 27 25 26 27 25 27 31 31 30 33 33 33 32 32 32 29 28 27 26 24 25 23 27 28 32 33 34 33
41 42 42 43 44 44 44 44 45 44 42 35 34 33 30 22 24 24 25 25 25 25 27 27 30 32 34 37 34 34 32 31 31 31 31 28 28 27 24 23 21 28 28 27 26 31 31
43 42 42 43 44 45 45 45 45 44 43 37 35 35 31 22 24 22 23 21 24 27 29 31 33 36 41 37 31 26 26 27 27 28 28 29 28 25 24 24 23 19 21 22 22 31 37
42 42 43 44 45 45 45 45 45 45 44 40 36 37 34 29 25 25 23 25 26 27 29 31 38 41 40 34 29 23 21 24 22 25 27 28 30 28 26 23 18 23 25 28 31 31 36
43 43 44 45 46 46 46 45 45 45 45 43 37 37 36 30 30 29 27 28 32 30 33 32 34 36 39 31 24 23 23 23 23 26 26 26 27 26 25 26 27 27 28 31 26 32 37
43 44 45 46 46 46 46 46 46 46 46 44 40 37 36 32 30 31 31 30 31 34 28 34 32 35 32 28 27 25 23 27 26 27 30 26 26 26 27 24 21 33 32 32 38 38 36
44 45 45 46 46 46 46 46 46 46 46 45 39 39 39 35 31 34 32 32 32 35 37 37 36 35 35 29 29 29 27 31 31 28 35 29 28 28 27 26 39 41 39 41 38 36 37
Lifted_Index
11 11 11 12 12 12 13 13 13 13 13 14 14 13 13 13 13 13 12 12 13 13 13 13 14 14 14 13 12 12 11 10 9 9 9 9 9 8 7 6 5 5 6 6 5 5 4
10 10 11 11 11 11 12 12 12 12 13 13 13 13 13 13 13 13 12 12 12 13 13 13 13 14 13 12 12 12 12 11 10 10 10 9 8 8 7 6 5 5 5 5 5 5 5
10 10 10 10 10 10 10 11 11 11 12 12 12 12 12 12 12 12 12 12 12 12 12 12 12 13 12 11 12 13 12 11 11 11 10 9 8 7 7 6 5 4 4 5 5 5 5
9 10 10 10 9 9 9 10 10 11 11 11 12 12 11 11 11 10 11 11 11 11 11 11 11 11 11 11 11 12 11 11 11 11 10 9 8 7 6 5 4 4 4 4 5 5 5
9 10 10 10 10 9 9 9 9 10 10 11 11 11 11 10 10 10 10 10 10 10 10 10 10 10 9 9 10 10 10 10 10 10 10 9 8 6 5 4 3 3 3 3 4 4 4
9 9 10 10 10 10 9 9 9 9 9 10 10 10 10 9 9 9 9 9 9 9 9 8 8 8 8 8 8 8 9 9 9 9 8 8 7 6 5 4 3 2 2 3 3 3 3
9 9 9 9 9 9 9 9 8 8 9 9 10 10 10 9 9 9 9 8 8 8 7 7 7 7 7 7 8 8 8 7 7 8 7 7 5 5 5 4 3 2 2 3 3 2 2
8 8 8 8 9 9 8 8 8 8 8 9 9 10 10 9 9 8 8 7 7 8 7 7 7 7 6 7 7 8 7 7 6 6 6 6 5 5 5 5 4 3 3 3 3 2 2
8 8 8 8 8 8 7 7 7 7 7 8 8 9 9 9 9 8 7 6 7 7 7 6 6 6 6 7 7 7 7 7 6 5 5 5 5 5 5 5 4 4 3 3 3 2 2
8 8 7 7 6 6 6 6 6 6 6 7 7 8 8 8 8 7 6 6 6 6 5 4 5 5 6 6 6 6 7 7 6 5 4 4 4 4 4 4 4 4 3 3 3 2 2
7 7 6 5 5 5 4 4 5 5 5 6 6 7 7 8 8 7 6 5 5 5 3 3 4 4 4 5 5 5 6 6 6 5 4 4 4 4 4 4 4 4 3 3 3 3 2
7 6 5 5 5 4 4 4 4 4 4 5 5 6 7 8 7 6 5 5 4 3 2 3 3 4 4 4 4 5 6 6 5 4 4 4 4 4 4 4 4 3 3 2 2 2 2
7 6 6 5 5 4 4 3 3 4 4 4 5 6 7 7 7 6 5 4 3 2 2 2 3 3 4 4 4 4 5 5 5 4 4 4 4 4 5 4 4 3 2 1 1 1 1
7 7 6 6 5 5 4 4 3 3 4 4 5 5 6 7 7 6 5 4 3 2 1 2 3 3 3 3 3 4 4 4 4 4 4 4 3 3 4 4 3 2 2 1 1 1 1
8 7 7 6 5 5 4 4 3 3 3 4 5 5 6 6 6 5 4 3 2 2 1 2 3 3 3 3 3 3 3 3 4 4 4 3 3 3 3 3 2 2 2 2 1 1 1
8 7 7 6 5 5 4 3 3 3 3 4 5 5 5 5 4 4 3 3 2 2 2 3 3 3 2 2 2 2 2 2 3 3 3 3 3 2 2 2 2 2 1 2 2 1 1
8 7 6 6 5 4 3 3 2 2 2 3 4 5 4 4 3 3 3 3 2 2 3 3 3 3 2 2 2 2 1 1 2 2 3 3 3 2 2 2 2 2 1 1 2 1 1
7 7 6 5 4 4 3 2 2 2 2 3 4 4 3 3 3 3 3 2 2 2 3 3 3 3 3 3 3 2 1 1 2 2 2 2 2 2 2 2 2 2 1 1 1 1 1
7 7 6 5 4 3 3 2 2 1 2 2 3 3 3 2 2 2 2 2 2 2 2 2 3 3 3 3 3 2 2 2 2 3 2 2 2 2 2 2 1 1 1 1 1 1 1
7 6 6 5 4 3 2 2 1 1 1 2 3 3 3 2 2 2 2 2 2 2 2 2 2 3 3 3 3 3 2 2 3 3 3 3 2 2 2 1 1 1 1 1 1 1 1
6 6 6 5 4 3 2 2 1 1 2 3 3 3 3 2 2 1 1 1 1 1 1 1 2 2 3 3 3 3 3 3 3 3 4 4 3 2 1 1 1 1 1 1 1 1 1
6 6 5 5 4 3 3 2 2 2 2 3 4 4 3 3 2 2 2 1 1 1 1 1 2 2 2 3 3 3 3 3 3 3 4 4 3 2 1 1 1 1 1 1 1 1 1
6 6 5 5 4 3 3 2 2 2 3 4 4 4 4 3 3 3 2 2 1 1 1 1 2 2 2 2 2 3 3 3 3 3 3 4 3 2 1 1 1 1 0 1 1 1 1
6 6 5 5 4 3 3 3 3 3 4 5 5 4 4 4 4 3 3 2 2 2 2 1 2 2 2 2 2 2 2 3 3 3 3 4 3 2 2 1 1 0 0 0 0 0 0
6 6 6 5 4 3 3 3 3 3 4 5 5 5 4 4 4 4 3 3 2 2 2 1 1 1 1 1 1 1 1 2 2 3 3 3 3 3 2 2 1 1 0 0 0 -0 -0
6 6 5 4 4 3 3 3 3 3 4 4 5 5 5 5 4 4 3 3 3 2 2 1 1 1 1 1 1 1 1 1 1 2 2 3 3 3 3 2 2 1 1 0 0 0 0
6 5 4 4 3 3 3 3 3 3 3 4 4 5 5 5 4 4 3 3 2 2 2 1 1 1 1 1 1 1 1 0 0 1 1 2 2 2 2 2 2 1 1 0 -0 0 1
5 4 4 3 3 3 3 3 3 3 3 3 4 4 5 5 4 4 4 3 3 2 1 1 1 1 1 1 1 1 0 0 0 0 0 1 1 2 2 2 2 1 0 0 -0 0 1
4 4 3 3 2 2 2 2 3 3 3 3 3 4 4 4 4 4 4 4 3 2 1 1 1 1 1 1 1 1 0 0 0 0 0 0 1 1 1 1 1 0 0 0 0 1 1